Regional Weather Roundup
Issued by NWS

Home | Current Version | Previous Version | Text Only | Print | Product List | Glossary Off
Versions: 1 2 3 4 5 6 7 8 9 10 11 12 13 14 15 16 17 18 19 20 21 22 23 24 25 26 27 28 29 30 31 32 33 34 35 36 37 38 39 40 41 42 43 44 45 46 47

000
ASUS45 KSLC 062310
RWRUT

UTAH REGIONAL WEATHER ROUNDUP
NATIONAL WEATHER SERVICE SALT LAKE CITY UT
400 PM MST FRI MAR 06 2015

UTZ001>011-023>025-070000-

NORTHERN UTAH

CITY           SKY/WX    TMP DP  RH WIND       PRES   REMARKS
BRIGHAM CITY   SUNNY     52  20  28 SW5       30.40F
HILL AFB       SUNNY     52  17  25 VRB3      30.39F
LOGAN          SUNNY     53  20  27 VRB3      30.38F
OGDEN          SUNNY     52  24  33 NW7       30.39F
PROVO AIRPORT  SUNNY     48  21  34 SW5       30.39F
SALT LAKE CITY MOSUNNY   55  21  26 NW3       30.39S
VERNAL         SUNNY     47  21  35 VRB5      30.37F
WENDOVER       SUNNY     54  23  30 E6        30.39F
HEBER CITY     SUNNY     52  19  28 CALM      30.36F
WEST JORDAN    SUNNY     54  25  32 N10       30.39F

$$

UTZ012>022-026-027-070000-

SOUTHERN/CENTRAL UTAH

CITY           SKY/WX    TMP DP  RH WIND       PRES   REMARKS
BLANDING       SUNNY     50  23  34 CALM      30.40S
BRYCE CANYON   SUNNY     39  19  44 NE6       30.37S WCI  35
CEDAR CITY     SUNNY     50  18  28 NE5       30.33F
DELTA          SUNNY     55  19  25 N5        30.37S
HANKSVILLE     SUNNY     55  14  19 NE6       30.36F
MILFORD        SUNNY     54  23  30 N18       30.35F
MOAB/CYNLANDS  SUNNY     54  19  25 NW5       30.32F
PRICE          SUNNY     49  22  34 E3        30.36F
ST GEORGE      CLEAR     64  25  22 W5        30.26F
KANAB          SUNNY     55  19  24 NE10      30.33F

$$

REGIONAL REPORTS     COLORADO/ARIZONA

CITY           SKY/WX    TMP DP  RH WIND       PRES   REMARKS
CRAIG, CO      SUNNY     48  19  31 CALM      30.36F
GRAND JUNCTION SUNNY     53  16  23 VRB3      30.33F
RIFLE          SUNNY     52  14  22 S3        30.34F
MONTROSE       SUNNY     51  20  29 NW6       30.36S
CORTEZ         SUNNY     52  23  32 W5        30.32S
PAGE, AZ       SUNNY     55  20  25 N3        30.31F
GRAND CANYON   SUNNY     46  21  36 NE20G26   30.32F
KINGMAN        SUNNY     68  23  18 N20       30.17F
FLAGSTAFF      SUNNY     46  10  23 NE16G26   30.28S

$$

REGIONAL REPORTS    NEVADA/IDAHO/WYOMING

CITY           SKY/WX    TMP DP  RH WIND       PRES   REMARKS
LAS VEGAS, NV  SUNNY     72  14  11 E16       30.16F
ELY            SUNNY     55  20  25 N13       30.36F
ELKO           SUNNY     60  11  14 VRB5      30.34F
POCATELLO, ID  SUNNY     55  19  24 W9        30.38F
BURLEY         SUNNY     57  14  18 W8        30.35F
EVANSTON, WY   SUNNY     44  21  40 SW13      30.38S
ROCK SPRINGS   SUNNY     43  23  45 SW22      30.31F
KEMMERER       SUNNY     43  18  36 NW17G24   30.37S

$$


USA.gov is the U.S. government's official web portal to all federal, state and local government web resources and services.